Location: Brachstadt
(48.6975°N, 10.6755°E)
Time: 10:22:36
(UTC+00:00)

Daily predictions for brighter satellites

Satellite Brightness Start Highest point End
(mag) Time Altitude Azimuth Time Altitude Azimuth Time Altitude Azimuth
ATLAS 5 CENTAUR R/B 1.9 17:41:14 10° NW 17:43:47 89° SW 17:50:31 10° SE
ATLAS 3B R/B 4.3 17:42:33 10° NW 17:47:44 23° N 17:53:04 10° ENE
Iridium 4 Rocket 3.6 17:43:21 10° SSE 17:48:10 60° E 17:53:29 10° N
ATLAS CENTAUR R/B 3.4 17:50:00 10° W 17:53:17 25° NW 17:56:28 10° NNE
Cosmos 2263 Rocket 2.3 17:50:35 10° S 17:55:59 54° ESE 18:01:25 10° NE
Meteor 2-9 Rocket 4.4 17:53:21 10° S 17:59:04 59° E 18:04:46 10° NNE
USA 102 4.2 17:54:41 10° SE 18:00:45 64° ENE 18:04:03 10° NNW
SL-08 RB Rocket 4.5 17:57:11 10° SE 18:01:18 33° ENE 18:05:23 10° N
Tsikada Rocket 4.4 17:56:16 10° NNW 18:02:24 69° W 18:08:30 10° S
Cosmos 1844 Rocket 4.1 18:00:58 10° SE 18:03:54 15° E 18:06:51 10° ENE
CZ-2C R/B 3.2 17:58:55 10° SSE 18:04:08 82° ENE 18:09:43 10° NNW
SJ 16-02 1.9 18:00:17 10° SSW 18:04:38 64° WNW 18:09:01 10° NNE
Cosmos 990 Rocket 3.9 17:59:49 10° SSW 18:04:56 77° ESE 18:10:06 10° NNE
Cosmos 2227 4.2 17:59:50 10° SSW 18:05:32 69° ESE 18:11:14 10° NNE
ISS -1.9 18:04:16 10° S 18:06:25 16° SE 18:08:14 11° ESE
Abrixas rocket 2.0 18:05:56 10° WSW 18:08:44 58° SSE 18:11:14 12° E
Okean 2 Rocket 4.0 18:06:02 10° SE 18:09:50 27° E 18:13:37 10° NNE
Cosmos 1943 3.3 18:04:18 10° NNW 18:09:58 86° WSW 18:15:38 10° SSE
SJ-11-01 4.3 18:05:46 10° SSE 18:10:29 79° ENE 18:15:13 10° NNW
NOSS 8 (F) 4.2 18:08:18 10° SW 18:11:30 84° NW 18:14:32 10° NE
Okean-O 4.0 18:08:33 10° S 18:12:47 44° W 18:17:03 10° NNW
Lacrosse 5 rocket 2.4 18:09:25 10° W 18:13:31 46° NNW 18:17:51 10° NE
Ariane Rocket 3.5 18:11:15 10° SE 18:15:58 41° ENE 18:20:43 10° N
Cosmos 1437 2.7 18:14:56 10° NNW 18:17:56 75° W 18:20:55 10° S
NOSS 3-2 (A) 4.3 18:12:06 10° NW 18:19:13 55° NE 18:26:32 13° ESE
NOSS 2-2 (C) 3.8 18:17:33 10° S 18:20:42 31° ESE 18:24:06 10° ENE
Meteor 1-21 4.3 18:15:09 10° NNW 18:20:48 86° W 18:26:24 10° S
USA 116 3.6 18:19:01 10° NNE 18:22:23 79° WNW 18:26:06 10° SSW
Cosmos 1300 Rocket 4.2 18:19:05 10° SSE 18:23:03 35° E 18:27:05 10° NNE
CSL-04 Debris 4.5 18:18:32 10° S 18:23:54 71° WSW 18:29:19 10° NNW
YAOGAN 1 4.0 18:24:18 10° S 18:28:24 41° W 18:32:31 10° NNW
Cosmos 1603 4.4 18:23:47 10° NW 18:29:20 55° WSW 18:34:47 10° S
HJ-1C 4.0 18:27:32 10° S 18:30:46 58° W 18:34:03 10° NNW
Cosmos 1898 Rocket 3.8 18:26:55 10° SSW 18:32:04 72° WNW 18:37:17 10° NNE
Cosmos 1867 3.6 18:28:04 10° NW 18:33:36 88° NE 18:38:36 12° SE
CSL-04 Rocket 4.2 18:28:19 10° S 18:33:39 62° WSW 18:39:07 10° NNW
Cosmos 1891 Rocket 4.5 18:27:46 10° S 18:33:47 59° E 18:39:43 10° NNE
Cosmos 1536 Rocket 4.0 18:33:48 10° N 18:38:02 42° ENE 18:41:16 16° SE
USA 234 3.9 18:35:54 10° ENE 18:41:43 33° SE 18:47:30 10° SSW
Cosmos 1626 4.1 18:41:41 10° NE 18:43:18 13° ENE 18:43:18 13° ENE
DMSP B5D2-2 4.4 18:41:19 10° NNE 18:46:22 43° E 18:51:23 10° S
CREW DRAGON DEMO-1 DEB 3.6 18:43:36 10° WNW 18:46:33 45° N 18:47:59 24° ENE
CZ-4 R/B 4.2 18:47:32 10° SW 18:50:46 21° W 18:54:00 10° NW
Cosmos 2151 Rocket 3.8 18:46:37 10° SSE 18:50:53 49° E 18:55:14 10° NNE
Cosmos 372 Rocket 3.9 18:46:00 10° S 18:51:11 64° ESE 18:56:22 10° NNE
USA 186 1.7 18:48:48 15° SSE 18:51:17 86° WSW 18:54:32 10° NNW
Cosmos 1025 Rocket 2.9 18:47:42 10° N 18:52:06 76° E 18:56:08 12° SSE
NOSS 3-2 (C) 4.2 18:46:11 10° NW 18:53:20 57° NE 18:58:44 22° ESE
Cosmos 2150 Rocket 4.3 18:48:35 10° S 18:53:38 44° ESE 18:58:48 10° NE
Cosmos 1072 Rocket 4.5 18:50:28 10° S 18:56:42 87° E 19:03:05 10° N
Nadezhda 4 Rocket 3.9 18:52:43 10° N 18:58:51 70° ENE 19:04:41 11° SSE
Cosmos 1805 4.4 19:00:43 25° ENE 19:00:43 25° ENE 19:03:15 10° NNE
OBJECT-B 1.0 19:01:23 44° E 19:01:46 47° ENE 19:04:55 10° N
Cosmos 1937 Rocket 4.2 18:56:39 10° SW 19:01:48 56° WNW 19:06:58 10° NNE
Cosmos 2082 Rocket 4.2 18:59:10 10° N 19:02:17 15° NNE 19:04:43 12° ENE
Cosmos 2034 Rocket 4.0 18:56:38 10° S 19:02:56 67° E 19:09:14 10° NNE
MOS 1 Rocket 3.8 18:58:57 10° N 19:03:25 57° WNW 19:07:39 10° SSW
Cosmos 1125 Rocket 4.0 18:59:49 10° SSE 19:04:39 37° ESE 19:09:30 10° NE
FREGAT/IRIS 2.3 19:05:32 58° SSW 19:05:55 74° W 19:08:31 10° NNW
Exosat Rocket 4.1 19:00:52 10° S 19:05:59 36° ESE 19:10:33 10° NE
Cosmos 1674 2.8 19:05:06 10° N 19:08:53 54° ENE 19:09:42 44° ESE
COSMOS 2406 4.4 19:05:39 10° NNW 19:10:28 27° NE 19:12:17 23° ENE
Meteor 1-24 Rocket 4.3 19:07:42 10° N 19:12:46 37° ENE 19:14:11 32° ESE
In-Cosmos 22 4.3 19:10:40 10° NNW 19:15:56 68° W 19:21:13 10° S
Cosmos 468 4.5 19:11:59 10° NNW 19:17:21 88° WSW 19:20:21 27° SSE
NOSS 2-2 (E) 3.6 19:14:25 10° SW 19:17:55 61° NW 19:22:01 10° NE
Resurs 01 Rocket 1.9 19:19:16 43° ESE 19:20:05 49° ENE 19:24:24 10° N
H-2A R/B 3.9 19:16:32 10° SSW 19:20:48 29° W 19:25:12 10° NNW
Cosmos 1707 4.3 19:17:47 10° NNW 19:21:18 34° W 19:24:47 10° SSW
ARGOS 4.5 19:16:54 10° SSW 19:21:53 39° W 19:26:54 10° NNW
ATLAS 2AS CENTAUR R/B 3.9 19:16:14 10° SSE 19:24:48 25° E 19:29:12 10° NE
CZ-2C R/B 2.7 19:18:22 10° NNE 19:23:54 85° WNW 19:29:30 10° SSW
SJ-6B 3.4 19:21:47 20° S 19:24:06 51° W 19:27:46 10° NNW
Lacrosse 4 Rocket 3.7 19:23:49 10° N 19:25:20 12° NNE 19:25:54 11° NE
NOSS 2-2 (D) 3.5 19:22:51 10° SW 19:26:21 63° NW 19:30:23 10° NE
KORONAS-FOTON 3.7 19:22:35 10° N 19:26:33 83° E 19:27:14 59° SSE
Cosmos 1048 Rocket 4.2 19:26:14 10° NNW 19:31:32 73° WSW 19:34:10 30° S
Cosmos 1766 4.3 19:33:39 32° NE 19:33:39 32° NE 19:36:04 10° NNE
SPOT 1/Viking Rocket 4.3 19:33:46 33° ENE 19:33:59 33° ENE 19:38:35 10° N
CENTAUR R/B 3.1 19:26:20 10° NW 19:34:18 80° NE 19:38:32 35° SE
Cosmos 1844 3.6 19:29:23 10° S 19:34:59 59° ESE 19:40:32 10° NE
IGS 5A 4.5 19:37:09 33° NE 19:37:09 33° NE 19:40:11 10° N
Cosmos 1634 Rocket 4.0 19:34:23 37° SSE 19:36:34 55° E 19:42:35 10° NNE
ARIANE 5 R/B 3.1 19:37:43 43° NE 19:37:43 43° NE 19:41:30 10° N
SWAS 4.3 19:34:24 10° NNW 19:38:43 85° ENE 19:39:04 75° SE
Cosmos 2263 Rocket 4.0 19:35:17 10° WSW 19:40:12 31° NW 19:45:10 10° NNE
ATLAS 3B R/B 3.4 19:33:52 10° NW 19:40:16 42° NE 19:42:49 31° ENE
Cosmos 1269 Rocket 4.1 19:35:33 10° NNW 19:40:48 55° ENE 19:41:30 51° E
Cosmos 2285 Rocket 3.9 19:35:03 10° S 19:41:15 64° ESE 19:47:32 10° NNE
MetOp-B 4.2 19:41:10 51° ESE 19:42:02 58° ENE 19:47:18 10° N
USA 238 DEB 3.9 19:34:56 10° NW 19:42:07 73° SW 19:45:38 34° SSE
USA 238 3.9 19:35:02 10° NW 19:42:13 74° SW 19:45:43 34° SSE
ISS -2.2 19:39:26 10° WSW 19:41:15 29° SW 19:41:15 29° SW
Abrixas rocket 4.0 19:41:07 10° W 19:42:31 26° W 19:42:31 26° W
Cosmos 1844 Rocket 2.5 19:41:21 10° SSW 19:46:55 87° ESE 19:52:33 10° NNE
Spot 2 Rocket 3.8 19:48:07 47° ENE 19:48:07 47° ENE 19:52:53 10° N
Cosmos 1627 Rocket 4.4 19:44:42 10° N 19:51:08 85° E 19:53:34 41° SSE
Okean 1 Rocket 3.0 19:51:21 67° SSW 19:51:57 85° W 19:56:28 10° N
Lacrosse 5 rocket 3.2 19:49:43 10° WNW 19:53:32 28° N 19:55:13 22° NNE
Cosmos 1092 Rocket 4.1 19:51:06 10° NNW 19:57:15 72° W 20:00:15 32° S
Resurs 1-3 4.4 19:57:58 37° SW 19:59:10 47° W 20:03:26 10° NNW
Cosmos 494 Rocket 4.4 19:59:20 10° NNW 20:04:30 59° WSW 20:05:36 48° SSW
Cosmos 2026 Rocket 4.0 19:58:26 10° N 20:04:48 83° W 20:06:55 46° S
CZ-2C R/B 3.8 20:00:44 10° N 20:05:11 72° WNW 20:05:30 69° WSW
SPOT 3 Rocket 4.2 20:03:38 35° SSW 20:05:28 52° W 20:10:31 10° NNW
Cosmos 1833 Rocket 3.1 20:02:19 10° NNW 20:07:47 47° NE 20:07:47 47° NE
Terra 3.4 20:19:13 26° NNE 20:19:13 26° NNE 20:21:52 10° N
Cosmos 1626 3.8 20:15:36 10° NNW 20:17:51 33° NW 20:17:51 33° NW
Cosmos 2279 Rocket 3.8 20:20:51 73° E 20:20:51 73° E 20:27:06 10° NNE
Cosmos 1892 Rocket 4.4 20:17:02 10° N 20:20:06 45° NNW 20:20:06 45° NNW
Cosmos 2142 Rocket 4.4 20:21:19 72° S 20:22:02 85° E 20:28:18 10° N
USA 234 3.1 20:19:22 14° NE 20:25:13 88° NW 20:31:47 10° WSW
OBJECT-B 4.0 20:34:35 11° W 20:34:35 11° W 20:35:33 10° WNW
SPOT 5 3.7 20:40:09 47° N 20:40:09 47° N 20:44:03 10° N
Cosmos 2082 Rocket 2.9 20:42:11 10° NNW 20:46:33 46° NNE 20:46:33 46° NNE
COSMOS 2406 3.7 20:49:37 10° NNW 20:54:20 56° WNW 20:54:20 56° WNW
ERS-1 Rocket 3.9 20:57:24 44° NNW 20:57:24 44° NNW 21:00:50 10° NNW
Resurs 01 Rocket 3.8 20:56:51 20° W 20:56:51 20° W 21:00:11 10° NW
Cosmos 2098 Rocket 4.2 20:56:54 10° NNW 21:03:50 73° WNW 21:03:50 73° WNW
Lacrosse 4 Rocket 3.9 21:00:55 10° NNW 21:02:11 19° NNW 21:02:11 19° NNW
Cosmos 2266 Rocket 4.3 21:00:42 10° N 21:05:35 60° NNW 21:05:35 60° NNW
ATLAS 2AS CENTAUR R/B 2.9 21:11:59 70° WSW 21:13:02 84° NW 21:20:57 10° NE
Cosmos 1655 Rocket 4.4 21:06:55 10° NNW 21:12:30 59° WNW 21:12:30 59° WNW
Cosmos 2278 Rocket 4.0 21:22:33 23° NNE 21:22:33 23° NNE 21:24:36 10° NNE
CENTAUR R/B 4.2 21:17:33 10° NW 21:24:43 34° WSW 21:25:44 33° SW
ATLAS 3B R/B 3.2 21:24:34 10° NW 21:30:03 55° WNW 21:30:03 55° WNW
Lacrosse 5 rocket 4.1 21:29:24 10° NW 21:30:50 19° NW 21:30:50 19° NW
Cosmos 1833 Rocket 4.5 21:46:33 10° NW 21:49:28 25° WNW 21:49:28 25° WNW
Terra 4.2 21:58:06 19° NW 21:58:06 19° NW 21:59:44 10° NNW
USA 234 4.0 22:01:42 10° ENE 22:07:55 49° NNW 22:14:09 10° W
Cosmos 2082 Rocket 4.5 22:26:47 10° NW 22:28:23 17° WNW 22:28:23 17° WNW
CZ-4C R/B 4.2 23:02:00 24° NNE 23:02:00 24° NNE 23:04:38 10° NE
Cosmos 2278 Rocket 4.3 23:04:22 21° NNW 23:04:22 21° NNW 23:08:03 10° N
ATLAS 2AS CENTAUR R/B 4.2 22:59:09 15° W 23:05:06 36° NNW 23:12:07 10° NE
Cosmos 2227 Rocket 4.4 23:38:42 10° N 23:42:44 19° NE 23:43:30 19° NE
USA 234 4.1 23:44:08 10° ENE 23:50:15 45° N 23:56:23 10° WNW
